Location: Nairn
(57.5833°N, 3.8667°W)
Time: 21:18:51
(UTC+00:00)

S-56A Canister/Altair - Pass Details

Date: 07 October 2022
Orbit: 638 x 2494 km, 38.9° (Epoch: 05 December)

Event Time Altitude Azimuth Distance (km) Brightness Sun altitude
Exits shadow 03:28:45 21° 187° (S) 2,736 10.0 -24.4°
Drops below altitude 10° 03:33:22 10° 150° (SSE) 3,130 10.6 -23.9°
Sets 03:36:26 0° 135° (SE) 3,825 11.3 -23.6°
